Location: Holton (historical)
(33.9472°N, 118.4440°W)
Time: 12:44:57
(UTC+00:00)

Cosmos 2315 Rocket - Pass Details

Date: 03 August 2024
Orbit: 965 x 1002 km, 82.9° (Epoch: 15 September)

Event Time Altitude Azimuth Distance (km) Brightness Sun altitude
Rises 12:20:35 0° 180° (S) 3,710 6.8 -9.6°
Reaches altitude 10° 12:23:06 10° 178° (S) 2,764 6.1 -9.1°
Maximum altitude 12:29:27 76° 94° (E) 1,031 4.3 -8.0°
Drops below altitude 10° 12:35:48 10° 10° (N) 2,769 6.9 -6.8°
Sets 12:38:20 0° 9° (N) 3,717 7.6 -6.3°
